This is the latest recevied weather packets stored in our database for station/object NK7E-1. If no packets are shown the sender has not sent any weather packets the latest 10 day(s).
| Time | Temp. | Humidity | Pressure | Rain* | Wind** | Luminosity | Snow |
|---|---|---|---|---|---|---|---|
| 1778104202 | 26.11° C | 16% | 1014.8 hPa | 0 mm | - | - | - |
| 1778103602 | 25.56° C | 18% | 1015 hPa | 0 mm | - | - | - |
| 1778103002 | 25° C | 19% | 1015.1 hPa | 0 mm | - | - | - |
| 1778102401 | 25° C | 18% | 1015.3 hPa | 0 mm | - | - | - |
| 1778101801 | 25° C | 19% | 1015.4 hPa | 0 mm | - | - | - |
| 1778101203 | 24.44° C | 22% | 1015.5 hPa | 0 mm | - | - | - |
| 1778100602 | 24.44° C | 22% | 1015.6 hPa | 0 mm | - | - | - |
| 1778100002 | 23.89° C | 22% | 1015.7 hPa | 0 mm | - | - | - |
| 1778099402 | 24.44° C | 23% | 1015.9 hPa | 0 mm | - | - | - |
| 1778098802 | 24.44° C | 25% | 1016 hPa | 0 mm | - | - | - |
| 1778098202 | 24.44° C | 26% | 1016 hPa | 0 mm | - | - | - |
| 1778097602 | 23.89° C | 26% | 1016.2 hPa | 0 mm | - | - | - |
| 1778097001 | 23.89° C | 27% | 1016.3 hPa | 0 mm | - | - | - |
| 1778096400 | 22.78° C | 28% | 1016.4 hPa | 0 mm | - | - | - |
| 1778095801 | 22.78° C | 29% | 1016.5 hPa | 0 mm | - | - | - |
| 1778095200 | 23.33° C | 28% | 1016.6 hPa | 0 mm | - | - | - |
| 1778094600 | 22.78° C | 29% | 1016.9 hPa | 0 mm | - | - | - |
| 1778094000 | 22.78° C | 31% | 1016.9 hPa | 0 mm | - | - | - |
| 1778093400 | 22.22° C | 32% | 1016.9 hPa | 0 mm | - | - | - |
| 1778092801 | 21.67° C | 32% | 1017.1 hPa | 0 mm | - | - | - |
| 1778092201 | 22.22° C | 31% | 1017.3 hPa | 0 mm | - | - | - |
| 1778091601 | 22.22° C | 31% | 1017.3 hPa | 0 mm | - | - | - |
| 1778091000 | 21.67° C | 31% | 1017.4 hPa | 0 mm | - | - | - |
| 1778090402 | 21.67° C | 32% | 1017.5 hPa | 0 mm | - | - | - |
| 1778089800 | 21.11° C | 33% | 1017.5 hPa | 0 mm | - | - | - |
* Rain latest hour (hover to see other rain measurements)
** Current wind speed in m/s (hover to see current wind gust speed)